Terug naar catalogus

MKA-N 2

ActiefWetenschapSSO
NORAD 42836·PAYLOAD·🇷🇺 Russia
Deze satellietnaam is nog niet bevestigd door officiële bronnen.

Gelanceerd Jul 14, 2017 vanaf Baikonur Cosmodrome

Loading…

Volgende Passages (komende 24 uur)

TLE

VersSource: Space-Track

Epoch: Sep 13, 2026, 22:56 UTC

1 42836U 17042M   26256.95600305  .00002881  00000-0  18372-3 0  9999
2 42836  97.4365  56.1388 0004914 136.4825 223.6793 15.09476185500404

Volg MKA-N 2 in realtime met AllMySat

Download on the App Store